Vorticity
-1 15 3 17 7 4 -4 5 3 3 3 7 19 2 9 -0 6 8 18 15 9 12 5 11 12 10 9 8 6 9 9 9 12 17 11 8 10 13 9 1 6 3 7 2
10 5 7 -1 4 5 14 8 8 20 23 13 11 -1 25 7 21 25 -9 18 14 -9 16 7 5 4 3 4 8 13 12 9 11 14 13 6 5 7 9 8 11 8 5 3
1 5 10 25 16 21 9 7 8 5 4 13 16 29 3 17 21 6 -12 6 3 12 9 4 6 10 12 14 11 8 14 21 11 11 11 7 10 7 10 12 14 12 6 8
14 8 9 8 14 10 0 12 13 13 9 3 -7 -1 -2 5 1 2 12 8 13 6 8 13 14 19 22 10 21 2 14 4 7 13 10 10 11 7 6 16 11 10 8 10
5 11 25 12 7 9 15 5 9 10 7 10 23 7 25 13 6 20 14 2 2 19 19 25 21 16 18 14 12 14 8 -0 14 25 6 9 17 -4 25 7 6 2 8 4
-9 4 6 15 12 18 -4 16 11 5 12 28 42 -12 54 6 26 -8 -17 1 22 16 12 10 10 10 11 15 20 21 22 26 20 13 18 7 3 3 5 17 7 13 4 6
22 17 12 -6 13 11 6 6 13 20 4 -5 15 23 -35 -2 -7 6 11 13 13 5 8 4 5 2 5 2 -0 2 8 17 19 32 21 22 24 17 16 12 14 -17 1 7
1 14 15 15 2 -9 15 1 -21 10 11 -1 11 9 16 3 -15 1 9 14 13 7 3 5 5 11 5 5 6 6 6 1 11 12 15 20 36 32 33 39 34 25 -4 9
14 5 4 10 22 1 15 7 19 4 -8 16 3 -12 7 13 31 14 14 15 7 4 3 5 6 1 1 1 1 2 5 7 9 4 11 5 5 6 2 6 14 6 34 4
18 -1 19 12 11 19 -10 38 11 7 16 -4 13 3 -8 -21 22 15 12 14 7 1 3 3 3 1 2 3 3 3 9 14 13 10 10 12 14 10 8 1 12 14 14 14
1 8 11 14 5 -2 11 3 -2 12 -1 4 9 18 16 3 2 5 17 8 7 3 8 2 2 2 4 4 5 3 10 12 13 12 14 12 13 14 16 19 7 8 13 12
7 14 15 -15 5 14 7 -6 8 -9 6 5 12 19 7 8 21 12 15 8 8 3 9 2 2 2 2 2 4 5 12 14 10 11 14 17 17 17 15 16 18 17 21 22
8 3 18 9 -2 20 8 7 4 12 -2 23 -11 7 -2 -7 0 3 13 20 6 2 7 4 -2 1 2 3 4 7 14 12 8 10 13 15 16 12 11 14 15 14 10 11
1 11 3 -5 -15 18 33 24 18 12 1 -0 4 -2 3 3 9 4 24 25 7 0 6 9 1 1 3 3 3 10 13 12 11 13 13 12 9 12 11 11 11 11 11 8
-0 -6 -3 0 3 2 1 -8 -0 6 4 -4 -8 0 0 7 18 5 21 14 6 19 7 12 5 3 4 5 4 12 13 14 14 13 11 8 10 13 16 13 9 10 8 9
33 19 22 13 13 13 12 6 4 7 7 6 6 5 14 19 14 2 24 26 16 11 8 8 5 3 6 5 7 11 14 15 14 12 12 11 12 17 17 10 8 8 7 7
10 10 9 8 12 14 39 13 12 12 13 14 11 12 15 11 8 18 15 17 14 21 7 12 5 6 6 4 11 15 16 14 11 11 11 15 19 15 9 6 8 6 7 6
2 12 12 -3 13 30 21 19 7 18 14 19 12 10 13 17 10 2 8 16 8 2 8 7 3 8 6 10 14 17 15 12 13 14 20 14 11 6 9 9 8 8 8 8
6 5 -6 -5 -1 -18 -34 -15 11 16 5 22 11 8 10 -11 14 12 18 6 15 9 10 5 1 12 7 12 17 16 14 14 16 8 1 6 9 9 9 9 10 9 9 8
33 18 11 -15 -18 15 19 28 11 11 7 22 29 26 13 27 15 13 5 21 21 3 15 4 14 5 10 16 14 14 15 9 4 5 9 9 10 10 10 11 9 8 8 8
16 30 12 13 11 33 13 10 36 8 -0 -2 13 16 19 18 18 5 21 23 2 11 15 12 6 9 14 15 13 16 12 4 7 8 10 11 9 8 8 8 8 7 8 8
-3 -0 44 60 24 18 13 20 -8 2 1 11 16 17 10 15 14 13 11 12 21 17 11 7 11 12 17 14 15 12 7 7 8 9 11 9 7 7 7 8 8 8 8 7
16 7 -10 -17 -4 3 4 -2 21 30 22 13 9 9 11 15 18 16 18 17 13 10 6 12 9 18 13 12 9 7 8 6 8 9 8 6 6 7 7 8 8 8 8 8
20 6 7 8 25 12 -2 4 19 3 6 11 13 10 5 8 10 13 14 11 10 14 12 11 19 14 12 11 9 7 8 8 8 7 6 6 7 7 7 8 8 9 9 8
8 -1 24 23 -5 -6 -3 10 12 11 11 9 -1 15 11 9 15 13 12 14 12 13 19 18 14 13 9 10 7 8 9 6 6 6 6 6 6 7 8 8 9 9 9 8
18 17 4 4 13 23 18 21 16 16 18 12 11 7 6 14 14 15 17 18 22 20 15 14 13 10 11 7 9 9 6 6 6 6 6 6 7 7 8 8 8 9 8 8
Height
3105 3110 3111 3116 3113 3114 3114 3116 3116 3116 3115 3111 3110 3108 3108 3104 3105 3103 3102 3101 3100 3099 3096 3093 3090 3088 3086 3084 3082 3080 3079 3079 3080 3082 3083 3083 3083 3084 3085 3085 3086 3087 3089 3089
3102 3101 3108 3105 3106 3108 3110 3112 3114 3111 3108 3107 3105 3102 3099 3095 3095 3098 3098 3096 3095 3094 3092 3089 3086 3084 3081 3079 3077 3075 3074 3073 3073 3074 3075 3076 3075 3075 3076 3077 3078 3079 3081 3081
3098 3099 3099 3100 3101 3103 3105 3107 3110 3108 3105 3103 3100 3096 3092 3089 3091 3093 3093 3092 3091 3089 3087 3085 3083 3080 3077 3075 3073 3071 3069 3067 3066 3067 3068 3069 3069 3068 3068 3068 3070 3071 3072 3073
3090 3094 3094 3096 3096 3098 3102 3102 3102 3103 3104 3102 3099 3093 3089 3088 3087 3088 3088 3088 3086 3084 3082 3079 3076 3073 3071 3069 3067 3066 3064 3063 3062 3061 3061 3061 3061 3060 3061 3062 3062 3063 3064 3065
3085 3086 3088 3092 3093 3091 3096 3096 3098 3099 3098 3098 3096 3095 3084 3083 3084 3083 3083 3084 3082 3080 3076 3073 3070 3067 3065 3063 3061 3060 3058 3057 3055 3054 3055 3055 3055 3054 3054 3054 3056 3055 3054 3056
3081 3081 3085 3089 3088 3087 3089 3093 3095 3095 3095 3090 3086 3089 3075 3078 3079 3079 3078 3077 3076 3074 3071 3068 3065 3062 3060 3058 3056 3054 3051 3049 3047 3047 3048 3047 3047 3047 3046 3046 3045 3046 3045 3045
3073 3076 3080 3083 3085 3085 3086 3090 3091 3089 3086 3080 3082 3082 3074 3074 3074 3074 3073 3072 3072 3070 3068 3065 3063 3061 3059 3057 3055 3053 3049 3045 3043 3041 3039 3039 3038 3037 3037 3037 3036 3035 3035 3034
3067 3074 3074 3075 3078 3081 3081 3086 3085 3081 3076 3076 3080 3073 3067 3067 3068 3068 3068 3068 3067 3066 3064 3063 3061 3060 3058 3056 3054 3051 3047 3044 3041 3038 3036 3033 3032 3029 3028 3028 3028 3026 3027 3025
3063 3068 3068 3070 3072 3075 3079 3080 3083 3083 3083 3082 3072 3067 3063 3062 3063 3063 3063 3062 3063 3062 3060 3059 3058 3057 3056 3054 3052 3048 3044 3041 3037 3035 3033 3031 3029 3026 3023 3022 3022 3020 3019 3020
3061 3064 3065 3065 3068 3070 3073 3075 3077 3080 3075 3068 3058 3058 3057 3057 3059 3059 3058 3058 3059 3059 3057 3056 3055 3054 3052 3050 3049 3045 3041 3037 3034 3031 3029 3027 3025 3023 3019 3018 3017 3015 3014 3014
3058 3060 3063 3062 3061 3064 3067 3067 3070 3071 3069 3062 3054 3052 3051 3054 3055 3055 3055 3054 3055 3054 3053 3052 3051 3050 3049 3047 3045 3041 3037 3034 3030 3027 3024 3021 3019 3018 3016 3013 3011 3009 3006 3005
3052 3053 3054 3055 3057 3058 3059 3060 3061 3062 3061 3060 3058 3048 3049 3050 3051 3051 3051 3049 3050 3050 3049 3048 3047 3045 3044 3042 3039 3037 3033 3030 3028 3025 3022 3018 3015 3014 3011 3010 3007 3005 3002 2998
3047 3046 3049 3049 3052 3049 3049 3051 3053 3054 3055 3050 3052 3045 3043 3044 3045 3046 3045 3043 3044 3044 3044 3043 3042 3041 3040 3038 3036 3033 3030 3027 3023 3020 3017 3015 3013 3011 3010 3007 3005 3002 3000 2998
3042 3041 3042 3038 3040 3040 3041 3043 3044 3046 3044 3043 3039 3041 3042 3040 3036 3037 3037 3038 3039 3039 3038 3038 3037 3037 3036 3034 3032 3029 3025 3023 3021 3018 3016 3013 3011 3010 3008 3005 3002 3000 2998 2996
3036 3035 3038 3035 3036 3037 3038 3038 3038 3036 3037 3037 3033 3036 3032 3037 3032 3030 3030 3031 3031 3032 3032 3032 3032 3032 3031 3029 3026 3024 3022 3020 3018 3016 3013 3011 3009 3007 3005 3003 3000 2998 2998 2995
3028 3026 3030 3026 3031 3032 3031 3029 3028 3030 3028 3029 3030 3021 3028 3027 3024 3022 3022 3023 3024 3023 3025 3026 3027 3027 3026 3024 3021 3019 3018 3016 3014 3013 3011 3009 3008 3006 3003 3002 3001 2999 2997 2995
3021 3022 3024 3019 3024 3024 3021 3013 3017 3016 3020 3021 3018 3016 3019 3018 3015 3015 3015 3016 3017 3017 3019 3020 3021 3021 3020 3019 3017 3015 3014 3013 3011 3010 3009 3007 3005 3004 3003 3002 3000 2998 2996 2994
3014 3015 3018 3014 3016 3009 3003 3006 3006 3007 3009 3008 3009 3010 3011 3009 3008 3007 3007 3009 3010 3011 3013 3015 3016 3016 3015 3014 3014 3012 3011 3010 3009 3008 3007 3006 3005 3004 3003 3001 2999 2998 2996 2994
3006 3009 3009 3009 3004 3001 3000 2999 2999 2999 2997 3001 3000 3001 3002 2998 2999 2999 3000 3002 3004 3006 3008 3010 3011 3011 3011 3011 3010 3009 3010 3009 3009 3008 3007 3006 3005 3004 3002 3000 2998 2996 2995 2993
2995 2998 3003 3000 2997 2992 2989 2993 2992 2994 2988 2991 2992 2992 2990 2991 2990 2992 2994 2995 2998 3001 3002 3004 3005 3006 3007 3007 3007 3007 3007 3008 3008 3007 3007 3006 3004 3003 3001 2999 2997 2995 2993 2990
2988 2990 2989 2988 2988 2986 2984 2985 2986 2989 2987 2984 2985 2985 2983 2983 2985 2986 2988 2990 2993 2995 2997 2999 3000 3002 3003 3003 3004 3005 3006 3006 3006 3006 3006 3005 3003 3001 2999 2997 2995 2993 2990 2988
2983 2983 2978 2978 2979 2977 2977 2979 2981 2980 2979 2979 2978 2978 2977 2977 2979 2981 2983 2985 2986 2989 2992 2994 2996 2998 2999 3000 3001 3003 3004 3004 3005 3005 3005 3004 3002 3000 2998 2996 2994 2992 2989 2987
2974 2972 2974 2975 2971 2970 2971 2973 2974 2974 2975 2975 2974 2973 2973 2974 2975 2977 2978 2979 2982 2984 2987 2990 2992 2994 2996 2997 2999 3001 3002 3003 3003 3003 3003 3002 3000 2998 2996 2994 2992 2991 2989 2987
2964 2964 2965 2965 2962 2964 2967 2969 2969 2970 2970 2969 2969 2969 2970 2971 2972 2972 2973 2975 2978 2980 2983 2986 2988 2990 2992 2995 2998 2999 3001 3001 3002 3002 3002 3000 2999 2997 2995 2994 2992 2990 2988 2985
2960 2957 2957 2955 2958 2960 2961 2962 2963 2964 2963 2964 2965 2965 2965 2966 2967 2968 2969 2971 2973 2976 2979 2981 2984 2987 2991 2994 2996 2998 3000 3001 3001 3001 3000 2998 2997 2996 2994 2992 2991 2988 2984 2980
2949 2950 2952 2953 2953 2954 2955 2956 2957 2957 2958 2959 2960 2961 2961 2962 2962 2963 2964 2967 2969 2972 2975 2979 2982 2986 2990 2993 2995 2998 2999 3000 3000 2999 2998 2997 2995 2993 2991 2989 2986 2983 2980 2977